Home   Weather   Sault Ste. Marie   Past weeks

Flag for Canada Past Weather in Sault Ste. Marie, Ontario, Canada — Yesterday and Last 2 Weeks

Now
59 °F

Sprinkles. Cloudy.


Feels Like: 57 °F
Forecast: 59 / 63 °F
Wind: 13 mph from East

Location: Sault Ste Marie

Current Time: Jul 23, 2017 at 1:00:45 pm

Latest Report: Jul 23, 2017 at 12:33 pm


Visibility: 8 mi

Pressure: 29.80 "Hg

Humidity: 100%

Dew Point: 59 °F

Location of Sault Ste. MarieLocation

Past Weather in Sault Ste. Marie — Graph

°F

Sault Ste. Marie Temperature Yesterday

Maximum temperature yesterday: 75 °F (at 2:00 pm)
Minimum temperature yesterday: 52 °F (at 2:00 am)
Average temperature yesterday: 65 °F

High & Low Weather Summary for the Past Weeks

 TemperatureHumidityPressure
High82 °F (Jul 20, 3:00 pm)100% (Jul 9, 4:43 am)30.11 "Hg (Jul 9, 4:43 am)
Low45 °F (Jul 15, 6:00 am)36% (Jul 10, 4:00 pm)29.77 "Hg (Jul 23, 6:40 am)
Average63 °F82%29.96 "Hg
* Reported Jul 8 11:00 am — Jul 23 11:00 am, Sault Ste. Marie. Weather by CustomWeather, © 2017

Note: Actual official high and low records may vary slightly from our data, if they occured in-between our weather recording intervals... More about our weather records

Advertising

Sault Ste. Marie Weather History for the Previous 24 Hours

Scroll right to see more
 ConditionsComfort  
Time TempWeatherWind HumidityBarometerVisibility
11:00 am
Sun, Jul 23
57 °FSprinkles. Mostly cloudy.10 mph100%29.82 "Hg12 mi
10:24 am57 °FSprinkles. Partly sunny.10 mph100%29.81 "Hg10 mi
10:00 am57 °FThunderstorms. Mostly cloudy.13 mph100%29.81 "Hg7 mi
9:00 am57 °FThunderstorms. Fog.16 mph100%29.82 "Hg1 mi
8:25 am59 °FThunderstorms. Fog.20 mph94%29.80 "Hg3 mi
8:00 am59 °FThunderstorms. Fog.14 mph94%29.81 "Hg2 mi
7:13 am63 °FThunderstorms. Mostly cloudy.10 mph73%29.77 "Hg10 mi
6:40 am64 °FThunderstorms. Mostly cloudy.10 mph68%29.77 "Hg15 mi
6:00 am64 °FOvercast.8 mph73%29.78 "Hg15 mi
5:00 am64 °FMostly cloudy.9 mph68%29.78 "Hg15 mi
4:00 am64 °FOvercast.9 mph73%29.79 "Hg15 mi
3:00 am64 °FMostly cloudy.9 mph78%29.80 "Hg15 mi
2:00 am64 °FOvercast.9 mph78%29.83 "Hg15 mi
1:00 am66 °FPassing clouds.8 mph73%29.82 "Hg15 mi
12:00 am66 °FPassing clouds.8 mph73%29.83 "Hg15 mi
11:00 pm
Sat, Jul 22
66 °FMostly cloudy.8 mph73%29.83 "Hg15 mi
10:00 pm68 °FPartly cloudy.8 mph73%29.83 "Hg15 mi
9:00 pm70 °FPartly sunny.10 mph69%29.83 "Hg15 mi
8:00 pm70 °FPartly sunny.9 mph73%29.82 "Hg15 mi
7:00 pm72 °FCloudy.7 mph73%29.82 "Hg15 mi
6:00 pm72 °FCloudy.8 mph69%29.83 "Hg15 mi
5:00 pm72 °FBroken clouds.8 mph69%29.83 "Hg15 mi
4:00 pm73 °FMostly cloudy.6 mph65%29.84 "Hg15 mi
3:00 pm73 °FCloudy.5 mph69%29.84 "Hg15 mi
2:00 pm75 °FCloudy.6 mph61%29.85 "Hg15 mi
1:00 pm73 °FCloudy.5 mph65%29.85 "Hg15 mi
Weather by CustomWeather, © 2017

See weather overviewHow to use our weather pages